Voltar ao catálogo

BREEZE-M DEB

AtivoHEO
NORAD 38619·DEBRIS·🇷🇺 Russia

Lançado Mar 14, 2008 de Baikonur Cosmodrome

Loading…

Próximas Passagens (próximas 24 horas)

TLE

AtualizadoSource: Space-Track

Época: Sep 13, 2026, 08:16 UTC

1 38619U 08011BS  26256.34477608 -.00000104  00000-0  00000-0 0  9993
2 38619  49.2664  33.8345 6348482 201.7179 110.6560  3.05797464168726

Acompanhe BREEZE-M DEB em tempo real com AllMySat

Download on the App Store